CFG1AF EDDL-LGRP

Flight info

Callsign CFG1AF
Flight time 3h 12m
Altitude 35000
Route KUMIK5Z/05R KUMIK Y854 BOMBI DCT DETEV DCT DINKU DCT BESNI DCT LATLO DCT OBEDI DCT CEPRA DCT PODET DCT LURID DCT VABEK UL603 OLOTA DCT DISOR DCT KOROS DCT MES UN139 LURUS UL995 USINI/N0397F230 L995 CODIC
Aircraft A320/M-SDE3FGHIJ1LORVWXYZ/LB1

Departure

Time 2026-04-30 18:31
Airport Düsseldorf Airport (EDDL)

Arrival

Time 2026-04-30 21:43
Airport Rhodes International Airport "Diagoras" (LGRP)
Time Latitude Longitude Altitude Speed Heading
2026-04-30 17:39 51.28011 6.76417 131 ft 0 kts 208°
2026-04-30 18:21 51.28012 6.76418 130 ft 2 kts 208°
2026-04-30 18:21 51.28035 6.76436 129 ft 4 kts 201°
2026-04-30 18:21 51.28060 6.76445 125 ft 4 kts 171°
2026-04-30 18:21 51.28080 6.76432 126 ft 4 kts 146°
2026-04-30 18:22 51.28102 6.76407 125 ft 4 kts 141°
2026-04-30 18:22 51.28135 6.76344 125 ft 4 kts 116°
2026-04-30 18:22 51.28146 6.76305 126 ft 4 kts 108°
2026-04-30 18:23 51.28150 6.76265 127 ft 4 kts 72°
2026-04-30 18:23 51.28139 6.76233 127 ft 4 kts 56°
2026-04-30 18:23 51.28124 6.76198 125 ft 4 kts 52°
2026-04-30 18:23 51.28120 6.76190 125 ft 0 kts 53°
2026-04-30 18:25 51.28124 6.76200 125 ft 3 kts 53°
2026-04-30 18:25 51.28148 6.76239 127 ft 4 kts 39°
2026-04-30 18:26 51.28184 6.76138 125 ft 9 kts 238°
2026-04-30 18:26 51.28149 6.76063 127 ft 8 kts 233°
2026-04-30 18:26 51.28112 6.75984 129 ft 10 kts 233°
2026-04-30 18:27 51.28006 6.75763 128 ft 15 kts 232°
2026-04-30 18:27 51.27953 6.75651 129 ft 10 kts 236°
2026-04-30 18:28 51.27979 6.75538 128 ft 0 kts 333°
2026-04-30 18:28 51.28100 6.75517 126 ft 6 kts 24°
2026-04-30 18:29 51.28122 6.75539 125 ft 2 kts 37°
2026-04-30 18:29 51.28126 6.75548 126 ft 0 kts 50°
2026-04-30 18:30 51.28231 6.75767 126 ft 61 kts 53°
2026-04-30 18:31 51.28625 6.76596 129 ft 124 kts 53°
2026-04-30 18:31 51.29904 6.79253 869 ft 160 kts 54°
2026-04-30 18:32 51.31239 6.82046 2134 ft 154 kts 57°
2026-04-30 18:32 51.31896 6.83391 2636 ft 153 kts 57°
2026-04-30 18:32 51.33262 6.86162 3283 ft 175 kts 58°
2026-04-30 18:33 51.34019 6.87817 3550 ft 192 kts 61°
2026-04-30 18:33 51.35366 6.91950 4029 ft 229 kts 89°
2026-04-30 18:33 51.35186 6.94544 4570 ft 237 kts 102°
2026-04-30 18:34 51.34902 6.97197 5247 ft 246 kts 102°
2026-04-30 18:34 51.34318 7.02682 6822 ft 252 kts 101°
2026-04-30 18:34 51.34029 7.05472 7567 ft 255 kts 101°
2026-04-30 18:35 51.33737 7.08296 8325 ft 258 kts 101°
2026-04-30 18:35 51.33441 7.11154 9096 ft 261 kts 100°
2026-04-30 18:35 51.33144 7.14041 9849 ft 264 kts 100°
2026-04-30 18:36 51.32557 7.20053 10733 ft 292 kts 98°
2026-04-30 18:36 51.32296 7.23399 10874 ft 314 kts 97°
2026-04-30 18:36 51.31790 7.30588 11866 ft 331 kts 96°
2026-04-30 18:37 51.31521 7.34221 12501 ft 335 kts 99°
2026-04-30 18:37 51.30764 7.37758 13109 ft 340 kts 118°
2026-04-30 18:37 51.29272 7.40725 13739 ft 347 kts 134°
2026-04-30 18:37 51.27499 7.43392 14338 ft 351 kts 134°
2026-04-30 18:38 51.25692 7.46059 14893 ft 354 kts 135°
2026-04-30 18:38 51.23868 7.48735 15445 ft 358 kts 135°
2026-04-30 18:38 51.22046 7.51402 15994 ft 361 kts 135°
2026-04-30 18:38 51.20184 7.54128 16544 ft 364 kts 135°
2026-04-30 18:39 51.18304 7.56884 17093 ft 367 kts 134°
2026-04-30 18:39 51.16423 7.59649 17631 ft 370 kts 134°
2026-04-30 18:39 51.14517 7.62453 18165 ft 374 kts 134°
2026-04-30 18:39 51.12599 7.65274 18694 ft 377 kts 134°
2026-04-30 18:40 51.10662 7.68119 19143 ft 379 kts 134°
2026-04-30 18:40 51.08737 7.70945 19623 ft 382 kts 134°
2026-04-30 18:40 51.06772 7.73820 20086 ft 386 kts 134°
2026-04-30 18:40 51.04784 7.76721 20554 ft 388 kts 134°
2026-04-30 18:41 51.02786 7.79635 21040 ft 391 kts 134°
2026-04-30 18:41 51.00775 7.82564 21507 ft 393 kts 134°
2026-04-30 18:41 50.98747 7.85515 21970 ft 396 kts 135°
2026-04-30 18:41 50.96710 7.88474 22413 ft 398 kts 135°
2026-04-30 18:42 50.94669 7.91436 22839 ft 401 kts 135°
2026-04-30 18:42 50.90543 7.97414 23673 ft 405 kts 135°
2026-04-30 18:42 50.88453 8.00433 24056 ft 408 kts 135°
2026-04-30 18:45 50.64380 8.26759 27099 ft 433 kts 144°
2026-04-30 18:45 50.61825 8.29319 27394 ft 435 kts 144°
2026-04-30 18:45 50.59262 8.31881 27666 ft 437 kts 144°
2026-04-30 18:46 50.56715 8.34424 27928 ft 439 kts 144°
2026-04-30 18:46 50.54115 8.37015 28195 ft 441 kts 144°
2026-04-30 18:46 50.51520 8.39602 28449 ft 443 kts 144°
2026-04-30 18:46 50.48897 8.42218 28673 ft 446 kts 144°
2026-04-30 18:47 50.46278 8.44828 28930 ft 447 kts 144°
2026-04-30 18:47 50.43636 8.47452 29175 ft 449 kts 144°
2026-04-30 18:47 50.40987 8.50072 29403 ft 451 kts 144°
2026-04-30 18:47 50.38356 8.52668 29625 ft 453 kts 144°
2026-04-30 18:48 50.35643 8.55228 29829 ft 455 kts 146°
2026-04-30 18:48 50.32868 8.57648 30044 ft 458 kts 148°
2026-04-30 18:48 50.30050 8.59968 30276 ft 458 kts 149°
2026-04-30 18:48 50.27204 8.62250 30551 ft 458 kts 149°
2026-04-30 18:49 50.24372 8.64521 30800 ft 457 kts 149°
2026-04-30 18:49 50.21546 8.66817 31036 ft 456 kts 148°
2026-04-30 18:49 50.18774 8.69102 31257 ft 456 kts 148°
2026-04-30 18:49 50.15974 8.71435 31479 ft 456 kts 148°
2026-04-30 18:50 50.13177 8.73776 31704 ft 456 kts 148°
2026-04-30 18:50 50.10453 8.76113 31924 ft 454 kts 144°
2026-04-30 18:50 50.07902 8.78980 32146 ft 449 kts 135°
2026-04-30 18:50 50.05701 8.82377 32381 ft 444 kts 126°
2026-04-30 18:51 50.03883 8.86218 32603 ft 439 kts 117°
2026-04-30 18:51 50.02458 8.90405 32821 ft 436 kts 112°
2026-04-30 18:51 50.01162 8.94594 33035 ft 436 kts 112°
2026-04-30 18:51 49.99840 8.98841 33259 ft 435 kts 112°
2026-04-30 18:52 49.98515 9.03073 33475 ft 435 kts 112°
2026-04-30 18:52 49.97182 9.07318 33695 ft 435 kts 112°
2026-04-30 18:52 49.95856 9.11536 33922 ft 435 kts 112°
2026-04-30 18:52 49.94526 9.15767 34139 ft 435 kts 112°
2026-04-30 18:53 49.93214 9.19947 34341 ft 435 kts 112°
2026-04-30 18:53 49.91888 9.24172 34528 ft 435 kts 112°
2026-04-30 18:53 49.90555 9.28405 34724 ft 435 kts 112°
2026-04-30 18:53 49.89221 9.32628 34925 ft 435 kts 112°
2026-04-30 18:54 49.87888 9.36835 35101 ft 435 kts 112°
2026-04-30 18:54 49.86556 9.41038 35279 ft 434 kts 112°
2026-04-30 18:54 49.85219 9.45245 35352 ft 435 kts 112°
2026-04-30 18:55 49.82341 9.53437 35364 ft 439 kts 122°
2026-04-30 18:55 49.75852 9.63657 35375 ft 446 kts 132°
2026-04-30 18:56 49.69054 9.73495 35367 ft 446 kts 132°
2026-04-30 18:57 49.62284 9.83283 35360 ft 446 kts 132°
2026-04-30 18:57 49.57736 9.89819 35356 ft 446 kts 132°
2026-04-30 18:58 49.50913 9.99576 35370 ft 446 kts 131°
2026-04-30 18:59 49.44174 10.09215 35362 ft 446 kts 131°
2026-04-30 19:00 49.35872 10.21173 35358 ft 444 kts 129°
2026-04-30 19:01 49.27509 10.34978 35397 ft 442 kts 127°
2026-04-30 19:02 49.21196 10.45312 35418 ft 443 kts 127°
2026-04-30 19:03 49.12706 10.58916 35426 ft 443 kts 127°
2026-04-30 19:04 49.04211 10.72556 35434 ft 443 kts 127°
2026-04-30 19:05 48.95701 10.86142 35402 ft 443 kts 127°
2026-04-30 19:06 48.87179 10.99630 35365 ft 443 kts 127°
2026-04-30 19:06 48.80755 11.09781 35362 ft 444 kts 127°
2026-04-30 19:07 48.74321 11.19921 35350 ft 444 kts 127°
2026-04-30 19:08 48.65736 11.33340 35348 ft 444 kts 127°
2026-04-30 19:09 48.59273 11.43433 35370 ft 445 kts 126°
2026-04-30 19:09 48.54959 11.50145 35362 ft 445 kts 127°
2026-04-30 19:10 48.46339 11.63465 35351 ft 445 kts 127°
2026-04-30 19:11 48.39839 11.73484 35374 ft 446 kts 126°
2026-04-30 19:12 48.35489 11.80146 35360 ft 446 kts 126°
2026-04-30 19:12 48.31135 11.86815 35354 ft 446 kts 126°
2026-04-30 19:13 48.22454 12.00052 35358 ft 446 kts 126°
2026-04-30 19:14 48.18099 12.06678 35400 ft 446 kts 126°
2026-04-30 19:14 48.13734 12.13304 35388 ft 446 kts 126°
2026-04-30 19:15 48.09359 12.19914 35383 ft 446 kts 126°
2026-04-30 19:15 48.02802 12.29800 35371 ft 446 kts 126°
2026-04-30 19:16 47.98423 12.36374 35380 ft 446 kts 126°
2026-04-30 19:17 47.91857 12.46191 35365 ft 447 kts 127°
2026-04-30 19:17 47.85249 12.56053 35362 ft 448 kts 127°
2026-04-30 19:18 47.78654 12.65848 35374 ft 448 kts 127°
2026-04-30 19:19 47.74237 12.72398 35413 ft 448 kts 127°
2026-04-30 19:19 47.67614 12.82185 35376 ft 450 kts 127°
2026-04-30 19:20 47.63166 12.88722 35362 ft 450 kts 127°
2026-04-30 19:21 47.56473 12.98534 35356 ft 451 kts 127°
2026-04-30 19:22 47.47523 13.11607 35361 ft 452 kts 128°
2026-04-30 19:23 47.34058 13.31158 35324 ft 454 kts 128°
2026-04-30 19:24 47.28367 13.41996 35348 ft 445 kts 119°
2026-04-30 19:25 47.19269 13.60423 35330 ft 446 kts 119°
2026-04-30 19:26 47.11925 13.75208 35344 ft 449 kts 119°
2026-04-30 19:27 47.06378 13.86323 35338 ft 450 kts 120°
2026-04-30 19:28 47.00814 13.97431 35335 ft 451 kts 120°
2026-04-30 19:29 46.93379 14.12189 35358 ft 452 kts 120°
2026-04-30 19:30 46.85909 14.26972 35333 ft 454 kts 121°
2026-04-30 19:31 46.78350 14.41812 35369 ft 455 kts 121°
2026-04-30 19:31 46.72670 14.52932 35357 ft 456 kts 121°
2026-04-30 19:32 46.68901 14.60288 35375 ft 456 kts 121°
2026-04-30 19:32 46.65094 14.67678 35373 ft 456 kts 121°
2026-04-30 19:33 46.61273 14.75085 35389 ft 457 kts 122°
2026-04-30 19:33 46.57449 14.82483 35369 ft 458 kts 122°
2026-04-30 19:34 46.53633 14.89847 35373 ft 458 kts 122°
2026-04-30 19:35 46.47868 15.00967 35378 ft 459 kts 122°
2026-04-30 19:35 46.44006 15.08356 35396 ft 459 kts 123°
2026-04-30 19:36 46.40133 15.15737 35392 ft 460 kts 123°
2026-04-30 19:36 46.34445 15.26831 35375 ft 459 kts 121°
2026-04-30 19:37 46.30820 15.34442 35374 ft 460 kts 120°
2026-04-30 19:37 46.27193 15.42095 35388 ft 461 kts 121°
2026-04-30 19:38 46.23504 15.49692 35383 ft 462 kts 121°
2026-04-30 19:38 46.19792 15.57264 35385 ft 462 kts 121°
2026-04-30 19:39 46.16063 15.64774 35389 ft 463 kts 123°
2026-04-30 19:39 46.12028 15.72036 35388 ft 465 kts 126°
2026-04-30 19:40 46.07831 15.79153 35385 ft 465 kts 127°
2026-04-30 19:40 46.03667 15.86299 35379 ft 465 kts 126°
2026-04-30 19:41 45.99580 15.93473 35376 ft 466 kts 126°
2026-04-30 19:41 45.95475 16.00687 35393 ft 466 kts 126°
2026-04-30 19:42 45.91337 16.07891 35389 ft 467 kts 127°
2026-04-30 19:42 45.87884 16.13873 35377 ft 467 kts 127°
2026-04-30 19:43 45.83055 16.22238 35376 ft 468 kts 127°
2026-04-30 19:44 45.77511 16.31803 35382 ft 468 kts 127°
2026-04-30 19:44 45.73335 16.38987 35376 ft 469 kts 127°
2026-04-30 19:45 45.69158 16.46169 35371 ft 470 kts 127°
2026-04-30 19:45 45.64955 16.53361 35371 ft 470 kts 127°
2026-04-30 19:46 45.60753 16.60523 35371 ft 470 kts 127°
2026-04-30 19:46 45.56570 16.67642 35382 ft 470 kts 128°
2026-04-30 19:47 45.52356 16.74802 35378 ft 471 kts 128°
2026-04-30 19:47 45.48138 16.81951 35372 ft 471 kts 128°
2026-04-30 19:48 45.43912 16.89088 35373 ft 471 kts 128°
2026-04-30 19:48 45.39692 16.96215 35373 ft 471 kts 128°
2026-04-30 19:49 45.35489 17.03281 35368 ft 471 kts 128°
2026-04-30 19:49 45.29114 17.13952 35365 ft 471 kts 128°
2026-04-30 19:50 45.24870 17.21042 35355 ft 471 kts 128°
2026-04-30 19:50 45.20622 17.28136 35360 ft 472 kts 129°
2026-04-30 19:51 45.16358 17.35218 35357 ft 472 kts 129°
2026-04-30 19:51 45.12098 17.42253 35354 ft 473 kts 129°
2026-04-30 19:52 45.07742 17.49242 35351 ft 473 kts 130°
2026-04-30 19:52 45.03353 17.56179 35357 ft 473 kts 130°
2026-04-30 19:53 44.98962 17.63130 35345 ft 473 kts 130°
2026-04-30 19:53 44.94601 17.70050 35343 ft 474 kts 130°
2026-04-30 19:54 44.90206 17.77005 35345 ft 474 kts 130°
2026-04-30 19:54 44.85803 17.83968 35353 ft 475 kts 131°
2026-04-30 19:55 44.81400 17.90899 35348 ft 475 kts 131°
2026-04-30 19:55 44.76982 17.97834 35348 ft 475 kts 131°
2026-04-30 19:56 44.72586 18.04730 35346 ft 475 kts 131°
2026-04-30 19:56 44.68155 18.11657 35339 ft 476 kts 131°
2026-04-30 19:57 44.63745 18.18524 35334 ft 476 kts 131°
2026-04-30 19:57 44.59306 18.25422 35330 ft 476 kts 131°
2026-04-30 19:58 44.54850 18.32342 35335 ft 477 kts 131°
2026-04-30 19:58 44.50419 18.39202 35345 ft 477 kts 132°
2026-04-30 19:59 44.45960 18.46081 35348 ft 477 kts 132°
2026-04-30 20:00 44.39254 18.56392 35336 ft 478 kts 132°
2026-04-30 20:00 44.34773 18.63270 35337 ft 478 kts 132°
2026-04-30 20:01 44.28068 18.73532 35325 ft 478 kts 132°
2026-04-30 20:01 44.23571 18.80377 35326 ft 478 kts 132°
2026-04-30 20:02 44.16819 18.90653 35322 ft 479 kts 133°
2026-04-30 20:03 44.10073 19.00867 35320 ft 480 kts 133°
2026-04-30 20:03 44.05539 19.07712 35325 ft 481 kts 133°
2026-04-30 20:04 44.01000 19.14551 35326 ft 481 kts 133°
2026-04-30 20:05 43.94211 19.24740 35333 ft 481 kts 133°
2026-04-30 20:05 43.87370 19.34976 35315 ft 482 kts 134°
2026-04-30 20:06 43.82842 19.41740 35319 ft 482 kts 134°
2026-04-30 20:06 43.78266 19.48547 35315 ft 482 kts 134°
2026-04-30 20:07 43.73679 19.55344 35319 ft 483 kts 134°
2026-04-30 20:08 43.66796 19.65551 35320 ft 483 kts 134°
2026-04-30 20:08 43.62223 19.72301 35316 ft 484 kts 134°
2026-04-30 20:09 43.57608 19.79079 35315 ft 484 kts 134°
2026-04-30 20:09 43.50685 19.89241 35318 ft 485 kts 134°
2026-04-30 20:10 43.43825 19.99299 35323 ft 485 kts 135°
2026-04-30 20:11 43.36863 20.09423 35310 ft 485 kts 135°
2026-04-30 20:11 43.32218 20.16175 35308 ft 486 kts 135°
2026-04-30 20:12 43.25260 20.26262 35309 ft 486 kts 135°
2026-04-30 20:13 43.20623 20.32965 35311 ft 487 kts 135°
2026-04-30 20:13 43.15948 20.39701 35305 ft 487 kts 135°
2026-04-30 20:14 43.11288 20.46398 35288 ft 487 kts 135°
2026-04-30 20:14 43.06600 20.53114 35279 ft 488 kts 136°
2026-04-30 20:15 43.01900 20.59839 35286 ft 488 kts 136°
2026-04-30 20:15 42.97176 20.66429 35284 ft 488 kts 138°
2026-04-30 20:16 42.92262 20.72825 35281 ft 487 kts 139°
2026-04-30 20:16 42.87295 20.79144 35276 ft 487 kts 139°
2026-04-30 20:17 42.82401 20.85471 35277 ft 488 kts 139°
2026-04-30 20:17 42.77490 20.91873 35275 ft 487 kts 139°
2026-04-30 20:18 42.72583 20.98241 35278 ft 487 kts 139°
2026-04-30 20:18 42.67670 21.04603 35271 ft 487 kts 139°
2026-04-30 20:19 42.62780 21.10909 35251 ft 487 kts 139°
2026-04-30 20:19 42.57851 21.17245 35265 ft 487 kts 140°
2026-04-30 20:20 42.52921 21.23559 35262 ft 487 kts 140°
2026-04-30 20:20 42.47991 21.29869 35277 ft 487 kts 140°
2026-04-30 20:21 42.43069 21.36174 35287 ft 487 kts 140°
2026-04-30 20:21 42.38127 21.42481 35282 ft 487 kts 140°
2026-04-30 20:22 42.33223 21.48724 35255 ft 487 kts 140°
2026-04-30 20:22 42.28271 21.54995 35261 ft 488 kts 140°
2026-04-30 20:23 42.23314 21.61264 35269 ft 488 kts 140°
2026-04-30 20:23 42.18308 21.67391 35268 ft 487 kts 142°
2026-04-30 20:24 42.13179 21.73383 35274 ft 487 kts 143°
2026-04-30 20:24 42.08085 21.79301 35254 ft 487 kts 143°
2026-04-30 20:25 42.00448 21.88288 35260 ft 487 kts 143°
2026-04-30 20:26 41.92800 21.97288 35264 ft 487 kts 143°
2026-04-30 20:26 41.85170 22.06212 35224 ft 486 kts 144°
2026-04-30 20:27 41.74941 22.18113 35235 ft 486 kts 144°
2026-04-30 20:28 41.64743 22.29938 35237 ft 486 kts 144°
2026-04-30 20:30 41.52785 22.43729 35208 ft 487 kts 145°
2026-04-30 20:31 41.37389 22.61395 35182 ft 487 kts 145°
2026-04-30 20:32 41.24539 22.76046 35165 ft 488 kts 146°
2026-04-30 20:33 41.16634 22.84435 35179 ft 484 kts 149°
2026-04-30 20:34 41.08661 22.92581 35176 ft 484 kts 148°
2026-04-30 20:35 41.00705 23.00850 35152 ft 484 kts 148°
2026-04-30 20:35 40.92755 23.09127 35160 ft 484 kts 148°
2026-04-30 20:36 40.87479 23.14569 35146 ft 484 kts 148°
2026-04-30 20:37 40.79501 23.22775 35134 ft 484 kts 148°
2026-04-30 20:37 40.74175 23.28250 35219 ft 485 kts 148°
2026-04-30 20:37 40.71545 23.30947 35426 ft 485 kts 148°
2026-04-30 20:38 40.68874 23.33683 35625 ft 485 kts 148°
2026-04-30 20:38 40.66204 23.36417 35810 ft 485 kts 148°
2026-04-30 20:38 40.63538 23.39143 35991 ft 485 kts 148°
2026-04-30 20:39 40.58220 23.44573 36334 ft 486 kts 148°
2026-04-30 20:39 40.55547 23.47293 36463 ft 486 kts 148°
2026-04-30 20:39 40.52874 23.50012 36622 ft 486 kts 148°
2026-04-30 20:40 40.47522 23.55458 36969 ft 486 kts 148°
2026-04-30 20:40 40.44848 23.58172 37116 ft 486 kts 148°
2026-04-30 20:40 40.42164 23.60890 37150 ft 486 kts 148°
2026-04-30 20:41 40.34133 23.69024 37141 ft 486 kts 148°
2026-04-30 20:41 40.28794 23.74412 37141 ft 486 kts 148°
2026-04-30 20:42 40.23431 23.79818 37138 ft 485 kts 148°
2026-04-30 20:43 40.15434 23.87856 37137 ft 484 kts 148°
2026-04-30 20:43 40.10090 23.93209 37135 ft 484 kts 148°
2026-04-30 20:44 40.02074 24.01209 37126 ft 484 kts 148°
2026-04-30 20:45 39.91383 24.11859 37152 ft 482 kts 148°
2026-04-30 20:45 39.86055 24.17160 37148 ft 481 kts 148°
2026-04-30 20:46 39.75452 24.27668 37127 ft 479 kts 148°
2026-04-30 20:47 39.67468 24.35546 37131 ft 479 kts 148°
2026-04-30 20:48 39.59518 24.43364 37124 ft 478 kts 148°
2026-04-30 20:48 39.54242 24.48552 37128 ft 478 kts 148°
2026-04-30 20:49 39.48941 24.53747 37102 ft 477 kts 147°
2026-04-30 20:50 39.40994 24.61492 37104 ft 476 kts 148°
2026-04-30 20:50 39.35738 24.66618 37097 ft 476 kts 147°
2026-04-30 20:51 39.30452 24.71767 37096 ft 475 kts 148°
2026-04-30 20:51 39.22520 24.79485 37068 ft 475 kts 148°
2026-04-30 20:52 39.17248 24.84589 37068 ft 475 kts 148°
2026-04-30 20:53 39.09371 24.92311 37058 ft 478 kts 141°
2026-04-30 20:53 39.07223 24.95521 37066 ft 485 kts 124°
2026-04-30 20:53 39.05537 24.99294 37057 ft 487 kts 121°
2026-04-30 20:54 39.00716 25.10817 37041 ft 487 kts 121°
2026-04-30 20:55 38.95904 25.22312 37039 ft 487 kts 121°
2026-04-30 20:55 38.92688 25.29994 37031 ft 488 kts 121°
2026-04-30 20:56 38.89094 25.37238 37025 ft 480 kts 134°
2026-04-30 20:56 38.86873 25.40441 37026 ft 479 kts 135°
2026-04-30 20:57 38.80162 25.49943 37037 ft 478 kts 135°
2026-04-30 20:57 38.75699 25.56253 37028 ft 477 kts 135°
2026-04-30 20:58 38.69027 25.65676 37009 ft 477 kts 135°
2026-04-30 20:58 38.64554 25.71976 37012 ft 477 kts 135°
2026-04-30 20:59 38.57880 25.81352 36995 ft 477 kts 135°
2026-04-30 21:00 38.48763 25.93661 36989 ft 471 kts 147°
2026-04-30 21:01 38.40833 26.00985 36990 ft 471 kts 148°
2026-04-30 21:02 38.32820 26.08301 36996 ft 471 kts 148°
2026-04-30 21:02 38.27505 26.13157 36983 ft 472 kts 148°
2026-04-30 21:03 38.22156 26.18027 36987 ft 472 kts 148°
2026-04-30 21:03 38.16827 26.22862 36990 ft 473 kts 148°
2026-04-30 21:04 38.11465 26.27720 36995 ft 473 kts 148°
2026-04-30 21:04 38.03423 26.34990 36989 ft 473 kts 148°
2026-04-30 21:05 37.98095 26.39798 37002 ft 473 kts 148°
2026-04-30 21:05 37.92728 26.44635 37009 ft 473 kts 148°
2026-04-30 21:06 37.87361 26.49466 37012 ft 473 kts 148°
2026-04-30 21:06 37.82024 26.54267 37015 ft 473 kts 148°
2026-04-30 21:07 37.76648 26.59076 36999 ft 473 kts 148°
2026-04-30 21:07 37.71281 26.63879 37008 ft 473 kts 148°
2026-04-30 21:08 37.65903 26.68686 37014 ft 473 kts 148°
2026-04-30 21:08 37.60568 26.73442 37017 ft 473 kts 149°
2026-04-30 21:09 37.55179 26.78227 37020 ft 473 kts 149°
2026-04-30 21:09 37.49792 26.83016 37021 ft 473 kts 149°
2026-04-30 21:10 37.44445 26.87762 37014 ft 473 kts 148°
2026-04-30 21:10 37.39059 26.92529 37021 ft 473 kts 149°
2026-04-30 21:11 37.36354 26.94917 36791 ft 472 kts 149°
2026-04-30 21:11 37.33698 26.97258 36551 ft 471 kts 148°
2026-04-30 21:11 37.31004 26.99632 36290 ft 470 kts 148°
2026-04-30 21:11 37.28327 27.01996 36032 ft 470 kts 148°
2026-04-30 21:12 37.25648 27.04365 35778 ft 470 kts 148°
2026-04-30 21:12 37.22977 27.06722 35522 ft 469 kts 148°
2026-04-30 21:12 37.20298 27.09082 35274 ft 469 kts 148°
2026-04-30 21:12 37.17661 27.11401 35033 ft 469 kts 148°
2026-04-30 21:13 37.16064 27.12805 34889 ft 469 kts 148°
2026-04-30 21:13 37.15997 27.12864 34885 ft 469 kts 148°
2026-04-30 21:13 37.13313 27.15219 34643 ft 468 kts 148°
2026-04-30 21:13 37.10672 27.17535 34151 ft 469 kts 148°
2026-04-30 21:14 37.07965 27.19904 33005 ft 476 kts 148°
2026-04-30 21:14 37.05252 27.22274 32103 ft 476 kts 148°
2026-04-30 21:14 37.02547 27.24632 31524 ft 470 kts 148°
2026-04-30 21:14 36.99866 27.26968 30864 ft 467 kts 148°
2026-04-30 21:15 36.97207 27.29283 30230 ft 464 kts 148°
2026-04-30 21:15 36.94596 27.31558 29529 ft 460 kts 147°
2026-04-30 21:15 36.91978 27.33842 28935 ft 455 kts 147°
2026-04-30 21:15 36.89396 27.36093 28317 ft 450 kts 147°
2026-04-30 21:16 36.86833 27.38326 27714 ft 446 kts 147°
2026-04-30 21:16 36.84298 27.40533 27117 ft 442 kts 148°
2026-04-30 21:16 36.81782 27.42715 26530 ft 439 kts 148°
2026-04-30 21:16 36.79285 27.44882 25947 ft 435 kts 148°
2026-04-30 21:17 36.76833 27.47009 25380 ft 432 kts 148°
2026-04-30 21:17 36.74375 27.49143 24824 ft 428 kts 147°
2026-04-30 21:17 36.71937 27.51256 24271 ft 425 kts 147°
2026-04-30 21:17 36.69517 27.53350 23766 ft 421 kts 148°
2026-04-30 21:18 36.67117 27.55423 23187 ft 418 kts 147°
2026-04-30 21:18 36.64744 27.57472 22712 ft 412 kts 147°
2026-04-30 21:18 36.62392 27.59505 22223 ft 408 kts 147°
2026-04-30 21:18 36.60076 27.61505 21733 ft 404 kts 148°
2026-04-30 21:19 36.57774 27.63488 21265 ft 401 kts 148°
2026-04-30 21:19 36.55489 27.65452 20781 ft 398 kts 148°
2026-04-30 21:19 36.53245 27.67381 20299 ft 395 kts 148°
2026-04-30 21:19 36.50993 27.69318 19805 ft 393 kts 147°
2026-04-30 21:20 36.48919 27.71525 19310 ft 394 kts 135°
2026-04-30 21:20 36.47273 27.74242 18814 ft 395 kts 122°
2026-04-30 21:20 36.46134 27.77354 18298 ft 396 kts 109°
2026-04-30 21:20 36.45540 27.80686 17740 ft 396 kts 100°
2026-04-30 21:21 36.45097 27.84058 17228 ft 393 kts 100°
2026-04-30 21:21 36.44656 27.87362 16727 ft 391 kts 100°
2026-04-30 21:21 36.42906 27.93631 15744 ft 382 kts 123°
2026-04-30 21:22 36.41373 27.96297 15275 ft 378 kts 129°
2026-04-30 21:22 36.36601 28.03996 13854 ft 372 kts 129°
2026-04-30 21:23 36.35025 28.06539 13341 ft 370 kts 129°
2026-04-30 21:23 36.33489 28.09027 12841 ft 367 kts 128°
2026-04-30 21:23 36.30500 28.14128 11741 ft 363 kts 126°
2026-04-30 21:24 36.29046 28.16681 11187 ft 362 kts 126°
2026-04-30 21:24 36.27596 28.19221 10676 ft 359 kts 126°
2026-04-30 21:24 36.26163 28.21715 10394 ft 349 kts 126°
2026-04-30 21:24 36.24782 28.24113 10272 ft 335 kts 125°
2026-04-30 21:25 36.23756 28.29358 10035 ft 310 kts 78°
2026-04-30 21:25 36.24186 28.31024 9880 ft 303 kts 62°
2026-04-30 21:25 36.25978 28.33568 9410 ft 295 kts 31°
2026-04-30 21:26 36.29162 28.34921 8712 ft 291 kts 11°
2026-04-30 21:26 36.31129 28.35490 8329 ft 289 kts 11°
2026-04-30 21:27 36.34824 28.36574 7891 ft 258 kts 12°
2026-04-30 21:27 36.36539 28.37080 7484 ft 250 kts 12°
2026-04-30 21:27 36.38222 28.37576 7085 ft 246 kts 12°
2026-04-30 21:28 36.41519 28.38548 6324 ft 245 kts 12°
2026-04-30 21:28 36.43197 28.38815 5927 ft 243 kts 355°
2026-04-30 21:28 36.46127 28.37203 5118 ft 227 kts 313°
2026-04-30 21:29 36.47018 28.35623 4730 ft 222 kts 293°
2026-04-30 21:29 36.46759 28.29989 3290 ft 223 kts 250°
2026-04-30 21:30 36.45751 28.26501 2700 ft 205 kts 250°
2026-04-30 21:31 36.44373 28.21767 1917 ft 185 kts 250°
2026-04-30 21:31 36.43551 28.18944 1441 ft 162 kts 250°
2026-04-30 21:32 36.42842 28.16513 1058 ft 144 kts 250°
2026-04-30 21:32 36.42502 28.15349 871 ft 143 kts 250°
2026-04-30 21:32 36.42166 28.14193 677 ft 142 kts 251°
2026-04-30 21:32 36.41831 28.13039 521 ft 142 kts 250°
2026-04-30 21:33 36.41498 28.11888 346 ft 141 kts 250°
2026-04-30 21:33 36.40841 28.09631 33 ft 130 kts 252°
2026-04-30 21:33 36.40554 28.08578 111 ft 144 kts 245°
2026-04-30 21:34 36.40201 28.07338 692 ft 157 kts 248°
2026-04-30 21:34 36.39494 28.04727 2113 ft 160 kts 254°
2026-04-30 21:34 36.39655 28.03366 2460 ft 174 kts 310°
2026-04-30 21:35 36.40719 28.02612 2888 ft 186 kts 337°
2026-04-30 21:35 36.41992 28.01998 3172 ft 211 kts 337°
2026-04-30 21:35 36.43489 28.01277 3135 ft 251 kts 337°
2026-04-30 21:35 36.45135 28.00674 3073 ft 240 kts 355°
2026-04-30 21:36 36.46707 28.01056 3061 ft 225 kts 27°
2026-04-30 21:36 36.47773 28.02340 3037 ft 214 kts 62°
2026-04-30 21:37 36.49213 28.07465 3068 ft 207 kts 72°
2026-04-30 21:37 36.49648 28.09169 3049 ft 206 kts 72°
2026-04-30 21:37 36.50068 28.10848 3059 ft 206 kts 72°
2026-04-30 21:37 36.50510 28.12541 3066 ft 206 kts 71°
2026-04-30 21:38 36.50965 28.14231 3073 ft 206 kts 71°
2026-04-30 21:38 36.51431 28.15919 3088 ft 206 kts 70°
2026-04-30 21:38 36.51907 28.17601 3107 ft 206 kts 70°
2026-04-30 21:38 36.52225 28.19327 2921 ft 207 kts 96°
2026-04-30 21:39 36.51637 28.20887 2733 ft 201 kts 141°
2026-04-30 21:39 36.50396 28.21649 2540 ft 202 kts 160°
2026-04-30 21:39 36.49096 28.22230 2384 ft 200 kts 162°
2026-04-30 21:39 36.47770 28.22756 2288 ft 200 kts 164°
2026-04-30 21:40 36.46438 28.23230 2226 ft 199 kts 165°
2026-04-30 21:40 36.45076 28.23544 2222 ft 199 kts 179°
2026-04-30 21:40 36.43802 28.23032 2131 ft 197 kts 223°
2026-04-30 21:40 36.43210 28.21579 2015 ft 187 kts 266°
2026-04-30 21:41 36.43328 28.20013 1782 ft 177 kts 275°
2026-04-30 21:41 36.43309 28.18543 1567 ft 163 kts 261°
2026-04-30 21:41 36.43050 28.17261 1387 ft 149 kts 252°
2026-04-30 21:41 36.42722 28.16057 1103 ft 146 kts 251°
2026-04-30 21:42 36.42359 28.14894 804 ft 142 kts 249°
2026-04-30 21:42 36.42044 28.13732 619 ft 141 kts 251°
2026-04-30 21:42 36.41709 28.12611 493 ft 141 kts 250°
2026-04-30 21:42 36.41375 28.11465 254 ft 140 kts 250°
2026-04-30 21:43 36.41038 28.10330 66 ft 140 kts 250°
2026-04-30 21:43 36.40727 28.09285 26 ft 112 kts 250°
2026-04-30 21:43 36.40492 28.08472 25 ft 90 kts 250°
2026-04-30 21:43 36.40351 28.08033 24 ft 30 kts 230°
2026-04-30 21:44 36.40222 28.07896 25 ft 10 kts 218°
2026-04-30 21:44 36.40173 28.07881 23 ft 7 kts 162°
2026-04-30 21:44 36.40153 28.07919 23 ft 5 kts 92°
2026-04-30 21:44 36.40171 28.07997 25 ft 13 kts 70°
2026-04-30 21:45 36.40202 28.08104 24 ft 13 kts 70°
2026-04-30 21:45 36.40233 28.08205 24 ft 12 kts 69°
2026-04-30 21:45 36.40260 28.08298 25 ft 10 kts 70°
2026-04-30 21:45 36.40282 28.08375 26 ft 9 kts 70°
2026-04-30 21:46 36.40301 28.08441 23 ft 8 kts 70°
2026-04-30 21:46 36.40319 28.08500 25 ft 8 kts 70°
2026-04-30 21:46 36.40347 28.08598 23 ft 16 kts 70°
2026-04-30 21:46 36.40393 28.08754 23 ft 20 kts 73°
2026-04-30 21:47 36.40398 28.08919 24 ft 19 kts 95°
2026-04-30 21:47 36.40417 28.09073 25 ft 13 kts 71°
2026-04-30 21:47 36.40402 28.09135 25 ft 7 kts 151°
2026-04-30 21:47 36.40366 28.09159 24 ft 3 kts 150°
2026-04-30 21:48 36.40361 28.09162 24 ft 0 kts 152°